Simultaneous Nadir Overpasses (SNOs) Predictions

Prediction of SNOs between METOP-A and TERRA Satellite Orbit:

Table of predicted SNOs for the next 14.0 days since TLE Epoch: 10/9/2018
Index Date (METOP-A) Time (METOP-A) Lat,Lon (METOP-A) SZA (METOP-A ) Date (TERRA) Time (TERRA) Lat,Lon (TERRA) SZA (TERRA ) Distance(km) Time Diff (sec)
1 10/11/2018 04:24:45 81.43, 163.24 91.73 10/11/2018 04:25:42 81.44, 163.32 91.78 1.51 57
2 10/11/2018 05:15:25 -81.43, -29.20 88.23 10/11/2018 05:15:09 -81.43, -29.10 88.23 1.79 16
3 10/13/2018 23:59:01 81.43,-130.41 92.79 10/13/2018 23:59:55 81.44,-130.25 92.84 2.64 54
4 10/14/2018 00:49:40 -81.43, 37.56 87.13 10/14/2018 00:49:22 -81.43, 37.36 87.16 3.31 18
5 10/16/2018 19:33:16 81.43, -63.69 93.88 10/16/2018 19:34:08 81.43, -63.87 93.88 2.99 52
6 10/16/2018 20:23:56 -81.43, 103.89 86.09 10/16/2018 20:23:35 -81.43, 103.78 86.11 1.88 21
7 10/19/2018 15:07:31 81.43, 2.60 94.89 10/19/2018 15:08:20 81.43, 2.48 94.90 1.97 49
8 10/19/2018 15:58:11 -81.43, 170.18 85.07 10/19/2018 15:57:47 -81.43, 170.15 85.09 0.58 24
9 10/22/2018 10:41:47 81.43, 68.85 95.88 10/22/2018 10:42:33 81.42, 68.78 95.89 1.39 46




NCC Satellite Simultaneous Nadir Overpasses (SNOs) Prediction Service
